Tracking 20369 objects as of 18-Feb-2020
HD Live streaming from Space Station
objects crossing your sky now

COSMOS 1137

Track COSMOS 1137 now!
10-day predictions
COSMOS 1137 is classified as:


NORAD ID: 11545
Int'l Code: 1979-084H
Perigee: 1,478.9 km
Apogee: 1,521.8 km
Inclination: 74.0 °
Period: 115.8 minutes
Semi major axis: 7871 km
RCS: 0.7275 m2 (medium)
Launch date: September 25, 1979
Source: Commonwealth of Independent States (former USSR) (CIS)
Launch site: PLESETSK MISSILE AND SPACE COMPLEX (PKMTR)
aabbcc
Your satellite tracking list
Your tracking list is empty




NASA's NSSDC Master Catalog

Two Line Element Set (TLE):
1 11545U 79084H   20048.85565896 -.00000004 +00000-0 +81403-4 0  9995
2 11545 074.0243 046.4301 0027277 300.0205 110.1281 12.43160432833296
Source of the keplerian elements: AFSPC